Miscellaneous Local Product
Issued by NWS Hastings, NE

Home | Current Version | Previous Version | Text Only | Print | Product List | Glossary On
Versions: 1 2 3 4 5 6 7 8 9 10 11 12 13 14 15 16 17 18 19 20 21 22 23 24 25 26 27 28 29 30 31 32 33 34 35 36 37 38 39 40 41 42 43 44 45 46 47 48 49 50
000
AXUS43 KGID 251802
MISGRI

GID CWA HOURLY WEATHER ROUNDUP
NATIONAL WEATHER SERVICE HASTINGS NE
100 PM CDT SAT OCT 25 2014

NOTE: "FAIR" INDICATES FEW OR NO CLOUDS BELOW 12,000 FEET WITH NO
SIGNIFICANT WEATHER AND/OR OBSTRUCTIONS TO VISIBILITY.

...SOUTH CENTRAL NEBRASKA...

CITY           SKY/WX    TMP DP  RH WIND       PRES   REMARKS
GRAND ISLAND   SUNNY     70  44  39 E6        30.12F
HASTINGS       SUNNY     70  44  39 E7        30.11F
KEARNEY        SUNNY     70  46  43 E10       30.12F
ORD            SUNNY     68  39  34 E9        30.12F
YORK           SUNNY     68  46  45 E10       30.12S
AURORA         SUNNY     70  42  35 E6        30.12S
LEXINGTON      SUNNY     71  46  41 E8        30.11F
HOLDREGE       SUNNY     71  46  40 E8        30.09F
HEBRON         SUNNY     74  45  35 SE8       30.08F

...NEBRASKA PANHANDLE...

CITY           SKY/WX    TMP DP  RH WIND       PRES   REMARKS
CHADRON        SUNNY     59  40  49 NE5       30.12F
ALLIANCE       SUNNY     61  39  44 S5        30.14F
SCOTTSBLUFF    SUNNY     64  32  30 CALM      30.14F
SIDNEY         SUNNY     71  36  27 SE6       30.16F

...WESTERN AND NORTH CENTRAL NEBRASKA...

CITY           SKY/WX    TMP DP  RH WIND       PRES   REMARKS
VALENTINE      SUNNY     65  28  24 E14       30.15F
AINSWORTH      SUNNY     64  31  29 E10       30.15F
ONEILL         SUNNY     67  35  30 E8        30.16F
BROKEN BOW     SUNNY     69  43  38 SE10      30.13F
IMPERIAL       SUNNY     73  36  25 E5        30.12F
NORTH PLATTE   SUNNY     69  46  43 E9        30.12F
MCCOOK         SUNNY     71  46  40 E6        30.10F

...EASTERN NEBRASKA...

CITY           SKY/WX    TMP DP  RH WIND       PRES   REMARKS
NORFOLK        SUNNY     68  37  32 E5        30.14F
SO SIOUX CITY  SUNNY     68  36  30 NE6       30.13F
TEKAMAH        SUNNY     70  40  33 NE7       30.12S
COLUMBUS       SUNNY     68  37  32 E10       30.15S
ALBION         SUNNY     66  38  34 E8        30.14F
OMAHA EPPLEY   MOSUNNY   70  39  32 E6        30.11F
OFFUTT AFB     SUNNY     72  45  37 NE5       30.10F
MILLARD        SUNNY     67  44  42 E3        30.11S
LINCOLN        SUNNY     71  45  39 NE8       30.12F
NEBRASKA CITY  SUNNY     70  41  34 E6        30.10F
BEATRICE       SUNNY     72  48  42 E9        30.09F
FALLS CITY     SUNNY     74  51  44 VRB6      30.07F

...NORTHERN KANSAS...

CITY           SKY/WX    TMP DP  RH WIND       PRES   REMARKS
GOODLAND       SUNNY     77  34  21 E6        30.13F
HILL CITY      SUNNY     75  48  38 SE6       30.08F
NORTON         CLEAR     75  46  35 E6        30.08
PHILLIPSBURG   SUNNY     75  55  50 E6        30.08F HAZE
SMITH CENTER   SUNNY     75  55  50 E9        30.08F
BELOIT         SUNNY     75  61  60 CALM      30.06S
HAYS           SUNNY     75  52  43 SE6       30.07F
RUSSELL        SUNNY     81  55  40 E6        30.05F
CONCORDIA      SUNNY     76  60  57 E7        30.07F
SALINA         SUNNY     81  63  54 E3        30.05F
TOPEKA         SUNNY     76  62  62 NE8       30.06F



USA.gov is the U.S. government's official web portal to all federal, state and local government web resources and services.